Location: Krakow
(50.0830°N, 19.9170°E)
Time: 11:59:47
(UTC+02:00)

A-11 Canister half - Pass Details

Date: 17 March 2026
Orbit: 1523 x 1684 km, 47.3° (Epoch: 16 April)

Event Time Altitude Azimuth Distance (km) Brightness Sun altitude
Rises 12:25:35 0° 274° (W) 4,839 11.7 38.1°
Reaches altitude 10° 12:28:45 10° 273° (W) 3,831 11.3 38.0°
Maximum altitude 12:38:24 73° 191° (S) 1,633 10.3 37.6°
Drops below altitude 10° 12:47:43 10° 110° (ESE) 3,711 11.1 37.1°
Sets 12:50:44 0° 108° (ESE) 4,682 11.5 37.0°
